Weather History for KOKC - October, 2012

Change the Weather History Date:

Tuesday, October 9, 2012

  Actual Average Record
Temperature  
Mean Temperature 62 °F 65 °F  
Max Temperature 77 °F 76 °F 96 °F (1965)
Min Temperature 46 °F 54 °F 28 °F (2000)
Degree Days  
Heating Degree Days 3 3  
Month to date heating degree days 73 23  
Since 1 July heating degree days 81 42  
Cooling Degree Days 0 3  
Month to date cooling degree days 4 34  
Year to date cooling degree days 2436 2059  
Growing Degree Days 12 (Base 50)    
Moisture  
Dew Point 49 °F    
Average Humidity 66    
Maximum Humidity 86    
Minimum Humidity 46    
Precipitation  
Precipitation 0.00 in 0.12 in 2.71 in (2011)
Month to date precipitation 0.01 1.07  
Year to date precipitation 25.33 30.02  
Snow  
Snow 0.00 in 0.00 in 0.00 in ()
Month to date snowfall 0.0 0.0  
Since 1 July snowfall 0.0 0.0  
Snow Depth -    
Sea Level Pressure  
Sea Level Pressure 29.91 in    
Wind  
Wind Speed 13 mph (South)    
Max Wind Speed 25 mph    
Max Gust Speed 30 mph    
Visibility 10 miles    
Events      
T = Trace of Precipitation, MM = Missing Value Source: NWS Daily Summary

Daily Weather History Graph

Daily Weather History Graph

Search for Another Location

Airport or City:

Trip Planner

Search our weather history database for the weather conditions in past years. The results will help you decide how hot, cold, wet, or windy it might be!

Date:

Astronomy

Oct. 09, 2012 Rise Set
Actual Time 7:32 AM CDT 7:02 PM CDT
Civil Twilight 7:06 AM CDT 7:27 PM CDT
Nautical Twilight 6:37 AM CDT 7:57 PM CDT
Astronomical Twilight 6:07 AM CDT 8:26 PM CDT
Moon 1:22 AM CDT (10/9) 3:19 PM CDT (10/9)
Length of Visible Light 12h 21m
Length of Day
11h 30m
Last Quarter, 36% of the Moon is Illuminated
Oct 9
Last Quarter
Oct 15
New
Oct 21
First Quarter
Oct 29
Full
Nov 6
Last Quarter

Hourly Weather History & Observations

Time (CDT) Temp. Windchill Dew Point Humidity Pressure Visibility Wind Dir Wind Speed Gust Speed Precip Events Conditions
12:52 AM 50.0 °F - 37.9 °F 63% 29.99 in 10.0 mi South 13.8 mph - N/A   Scattered Clouds
1:52 AM 50.0 °F - 39.0 °F 66% 29.98 in 10.0 mi South 11.5 mph - N/A   Partly Cloudy
2:52 AM 48.9 °F - 39.9 °F 71% 29.97 in 10.0 mi South 10.4 mph - N/A   Partly Cloudy
3:52 AM 48.9 °F - 41.0 °F 74% 29.95 in 10.0 mi South 11.5 mph - N/A   Partly Cloudy
4:52 AM 46.9 °F - 41.0 °F 80% 29.93 in 10.0 mi South 11.5 mph - N/A   Partly Cloudy
5:52 AM 46.4 °F 40.7 °F 42.8 °F 87% 29.93 in 10.0 mi SSE 12.7 mph - N/A   Clear
6:52 AM 46.9 °F - 42.1 °F 83% 29.91 in 10.0 mi SSE 13.8 mph - N/A   Clear
7:52 AM 48.0 °F - 44.1 °F 86% 29.91 in 10.0 mi SSE 10.4 mph - N/A   Clear
8:52 AM 52.0 °F - 46.9 °F 83% 29.91 in 10.0 mi South 13.8 mph - N/A   Clear
9:52 AM 57.9 °F - 48.9 °F 72% 29.90 in 10.0 mi South 18.4 mph 24.2 mph N/A   Partly Cloudy
10:52 AM 64.0 °F - 52.0 °F 65% 29.88 in 10.0 mi South 20.7 mph 27.6 mph N/A   Partly Cloudy
11:48 AM 66.2 °F - 51.8 °F 60% 29.88 in 10.0 mi SSW 20.7 mph 26.5 mph N/A   Mostly Cloudy
11:52 AM 66.0 °F - 52.0 °F 60% 29.87 in 10.0 mi South 21.9 mph 27.6 mph N/A   Mostly Cloudy
12:45 PM 69.8 °F - 53.6 °F 56% 29.86 in 10.0 mi South 19.6 mph 28.8 mph N/A   Scattered Clouds
12:52 PM 71.1 °F - 54.0 °F 55% 29.84 in 10.0 mi SSW 19.6 mph 27.6 mph N/A   Scattered Clouds
1:52 PM 73.9 °F - 54.0 °F 50% 29.82 in 10.0 mi South 19.6 mph 26.5 mph N/A   Mostly Cloudy
2:52 PM 73.9 °F - 55.0 °F 52% 29.82 in 10.0 mi SSW 15.0 mph 23.0 mph N/A   Mostly Cloudy
3:52 PM 75.0 °F - 54.0 °F 48% 29.84 in 10.0 mi WSW 13.8 mph 18.4 mph N/A   Mostly Cloudy
4:52 PM 73.0 °F - 54.0 °F 51% 29.86 in 10.0 mi WSW 6.9 mph - N/A   Mostly Cloudy
5:52 PM 75.0 °F - 54.0 °F 48% 29.87 in 10.0 mi SW 6.9 mph - N/A   Mostly Cloudy
6:52 PM 71.1 °F - 55.0 °F 57% 29.90 in 10.0 mi Calm Calm - N/A   Scattered Clouds
7:52 PM 66.9 °F - 53.1 °F 61% 29.93 in 10.0 mi Calm Calm - N/A   Scattered Clouds
8:52 PM 64.9 °F - 50.0 °F 58% 29.96 in 10.0 mi North 6.9 mph - N/A   Scattered Clouds
9:52 PM 64.0 °F - 48.0 °F 56% 29.99 in 10.0 mi North 10.4 mph - N/A   Scattered Clouds
10:52 PM 61.0 °F - 55.0 °F 81% 30.02 in 10.0 mi NNE 17.3 mph - N/A   Clear
11:52 PM 60.1 °F - 54.0 °F 80% 30.05 in 10.0 mi NNE 15.0 mph - N/A   Partly Cloudy